SL-16 DEB

Satellite information

Favourite Embed

Satellite Type and Status

DEBRISIN ORBIT

Key statistics

Satellite SL-16 DEB at a glance.

Uptime

11855

Days in orbit

Revolutions

≈ 14.2

Per day

Orbit

LEO

Low Earth Orbit

Inclination

70.9

Latest

Satellite identification and parameters

Extended collection of information and parameters for SL-16 DEB.

Object identification

Identified? True

Debris? True

Object name: SL-16 DEB

International designator: 1993-016AM

Object number (NORAD): 29098

Object ID (CCSDS): 29098

Country: COMMONWEALTH OF INDEPENDENT STATES (CIS)

Current information (Y/N): Y

RCS size: SMALL

Orbital parameters

Period: 101.631 minutes

Inclination: 70.9251 deg

SMA: 7214.024 km

Apoapsis: 896.28 km

Periapsis: 775.499 km

RAAN: 58.6952 deg

Eccentricy: 0.00837127

Argument of periapsis: 276.8775 deg

Mean anomaly: 103.1347 deg

Mean motion: 14.16890783 rev/day

Mean motion (dot): 0.00001751 rev/day2

B* drag term: 0.00086690493 1/REarth

Two-line elements (TLE)

Creation date: Sept. 4, 2025, 4:29 a.m.

Reference frame: TEME

Reference center: EARTH

Epoch: Aug. 31, 2025, 6:20 p.m. UTC

TLE line 0: 0 SL-16 DEB

TLE line 1: 1 29098U 93016AM 25243.76397634 .00001751 00000-0 86690-3 0 9994

TLE line 2: 2 29098 70.9251 58.6952 0083713 276.8775 103.1347 14.16890783629781

Live tracking on map

Real-time ground track for satellite SL-16 DEB.

In-orbit conjunctions

A list of the most updated potential collisions computed for object SL-16 DEB.

Target Orbit TCA Probability of collision Miss distance Type
COSMOS 773 LEO 2025-09-04 04:56:28 0.0003963977 267.0 (m) PAYLOAD
CZ-6A DEB LEO 2025-02-13 04:30:15 0.00042038 63.0 (m) DEBRIS

Associated space launch

Second generation ELING satellite

SL-16 DEB was lifted into orbit during the mission ‘Zenit-2 | Tselina-2 13’, on board a Zenit-2 space rocket.

The launch took place on March 26, 1993, 2:21 a.m. from 45/1.

For more information about the launch, click the button.

Launch to space Zenit-2 | Tselina-2 13
Zenit-2 | Tselina-2 13

Agency: N/A

Status: Launch Successful

Launch date: March 26, 1993, 2:21 a.m. UTC

Rocket: Zenit-2

Launch pad: 45/1

Location: Baikonur Cosmodrome, Republic of Kazakhstan

...

Latest news about this satellite

There are no fresh news available about this satellite. Check back as we update our databases every day.


Newsletter sign-up

Weekly statistics, charts and insights to help you stay on top of the space industry.